ABS-6

Last updated on Sun Apr 27 2025 00:02:38 GMT+0000 (Coordinated Universal Time)

1 25924U 99053A 25116.49026193 -.00000117 00000+0 00000+0 0 9995 2 25924 0.0464 93.8228 0002550 306.0097 150.4121 1.00270637 93650
UTC large
Height (km)
Speed (km/s)
/
Latitude / Longitude
Inclination (degrees)
Orbital Period (minutes)
Azimuth
Elevation
Range (km)
Doppler Factor

Next 0 passes for location: London (51.5072 / 0.1276)

Sorry there are no passes over London.